Location: Kaarina
(60.4167°N, 22.4167°E)
Time: 15:13:21
(UTC+03:00)

NOSS 2-2 (E) - Pass Details

Date: 24 August 2019
Orbit: 491 x 1716 km, 63.3° (Epoch: 13 September)

Event Time Altitude Azimuth Distance (km) Brightness Sun altitude
Rises 23:07:40 0° 288° (WNW) 2,908 8.0 -13.0°
Reaches altitude 10° 23:09:41 10° 291° (WNW) 2,114 7.2 -13.2°
Maximum altitude 23:14:28 73° 16° (NNE) 860 4.3 -13.5°
Drops below altitude 10° 23:21:01 10° 102° (ESE) 2,861 6.5 -14.0°
Enters shadow 23:21:53 - 103° (ESE) 3,184 6.8 -14.0°
